Location: Cronhütte
(48.9135°N, 9.6869°E)
Time: 03:23:33
(UTC+00:00)

Cosmos 2333 Rocket - Pass Details

Date: 23 May 2024
Orbit: 839 x 863 km, 70.8° (Epoch: 13 June)

Event Time Altitude Azimuth Distance (km) Brightness Sun altitude
Rises 00:46:08 0° 334° (NNW) 3,423 6.0 -17.7°
Reaches altitude 10° 00:48:45 10° 342° (NNW) 2,488 5.3 -17.6°
Maximum altitude 00:54:07 40° 51° (NE) 1,244 3.6 -17.2°
Drops below altitude 10° 00:59:28 10° 121° (ESE) 2,490 4.6 -16.9°
Sets 01:02:05 0° 128° (SE) 3,426 5.2 -16.7°
